Location: Allison Elementary School
(34.0784°N, 117.7317°W)
Time: 06:30:37
(UTC+00:00)

Cosmos 1805 Rocket - Pass Details

Date: 15 November 2019
Orbit: 606 x 630 km, 82.5° (Epoch: 05 December)

Event Time Altitude Azimuth Distance (km) Brightness Sun altitude
Rises 01:09:26 0° 5° (N) 2,873 6.7 -5.0°
Reaches altitude 10° 01:11:53 10° 16° (NNE) 1,968 5.8 -5.5°
Maximum altitude 01:15:43 30° 78° (ENE) 1,097 4.3 -6.3°
Drops below altitude 10° 01:19:35 10° 141° (SE) 1,968 5.9 -7.0°
Sets 01:22:00 0° 152° (SSE) 2,873 6.9 -7.5°
